| time (UTC) | temp F | wind direction | speed knots | gust knots | rain 1hr in | rain 24hr in | rain mn in | humidity % | barometer mb |
| 20260902204610 | 95 | 26 | 5.2 | 7.8 | 0.00 | 0.00 | 0.00 | 54 | 1014.5 |
| 20260902203044 | 95 | 30 | 3.5 | 7.0 | 0.00 | 0.00 | 0.00 | 55 | 1014.6 |
| 20260902201542 | 95 | 24 | 0.9 | 7.8 | 0.00 | 0.00 | 0.00 | 55 | 1014.9 |
| 20260902200041 | 95 | 355 | 1.7 | 7.0 | 0.00 | 0.00 | 0.00 | 55 | 1015.1 |
| 20260902194536 | 95 | 300 | 0.9 | 7.8 | 0.00 | 0.00 | 0.00 | 53 | 1015.2 |
| 20260902193036 | 95 | 360 | 4.3 | 7.8 | 0.00 | 0.00 | 0.00 | 54 | 1015.3 |
| 20260902191534 | 95 | 294 | 2.6 | 7.0 | 0.00 | 0.00 | 0.00 | 54 | 1015.3 |
| 20260902190035 | 95 | 27 | 4.3 | 7.0 | 0.00 | 0.00 | 0.00 | 53 | 1015.3 |
| 20260902184534 | 95 | 302 | 0.9 | 5.2 | 0.00 | 0.00 | 0.00 | 59 | 1015.4 |
| 20260902183049 | 95 | 360 | 2.6 | 8.7 | 0.00 | 0.00 | 0.00 | 56 | 1015.5 |
| 20260902181528 | 94 | 360 | 2.6 | 8.7 | 0.00 | 0.00 | 0.00 | 56 | 1015.7 |
| 20260902180025 | 95 | 47 | 4.3 | 7.8 | 0.00 | 0.00 | 0.00 | 56 | 1015.8 |
| 20260902174526 | 94 | 85 | 0.0 | 4.3 | 0.00 | 0.00 | 0.00 | 60 | 1015.8 |
| 20260902173028 | 94 | 84 | 1.7 | 5.2 | 0.00 | 0.00 | 0.00 | 59 | 1016.1 |
| 20260902171520 | 93 | 34 | 4.3 | 6.1 | 0.00 | 0.00 | 0.00 | 61 | 1016.4 |
| 20260902170015 | 92 | 315 | 1.7 | 7.0 | 0.00 | 0.00 | 0.00 | 64 | 1016.6 |
| 20260902164520 | 92 | 309 | 4.3 | 7.8 | 0.00 | 0.00 | 0.00 | 66 | 1016.9 |
| 20260902163009 | 91 | 309 | 2.6 | 7.8 | 0.00 | 0.00 | 0.00 | 67 | 1017.2 |
| 20260902161510 | 91 | 24 | 3.5 | 7.0 | 0.00 | 0.00 | 0.00 | 66 | 1017.4 |
| 20260902160006 | 90 | 120 | 4.3 | 6.1 | 0.00 | 0.00 | 0.00 | 69 | 1017.3 |
| 20260902154602 | 88 | 67 | 1.7 | 7.0 | 0.00 | 0.00 | 0.00 | 70 | 1017.5 |
| 20260902153107 | 88 | 47 | 1.7 | 7.8 | 0.00 | 0.00 | 0.00 | 71 | 1017.4 |
| 20260902151555 | 87 | 68 | 3.5 | 6.1 | 0.00 | 0.00 | 0.00 | 74 | 1017.4 |
| 20260902150048 | 85 | 80 | 4.3 | 7.8 | 0.00 | 0.00 | 0.00 | 76 | 1017.4 |
| 20260902144546 | 84 | 20 | 2.6 | 4.3 | 0.00 | 0.00 | 0.00 | 80 | 1017.3 |
| 20260902143041 | 82 | 313 | 0.0 | 0.0 | 0.00 | 0.00 | 0.00 | 86 | 1017.2 |
| 20260902141538 | 81 | 57 | 0.0 | 4.3 | 0.00 | 0.00 | 0.00 | 87 | 1017.3 |
| 20260902140004 | 79 | 284 | 0.0 | 1.7 | 0.00 | 0.00 | 0.00 | 90 | 1017.2 |
| 20260902134501 | 77 | 285 | 0.0 | 3.5 | 0.00 | 0.00 | 0.00 | 93 | 1017.1 |
| 20260902133104 | 76 | 284 | 0.9 | 4.3 | 0.00 | 0.00 | 0.00 | 95 | 1017.1 |
| 20260902131552 | 74 | 217 | 0.0 | 0.0 | 0.00 | 0.00 | 0.00 | 99 | 1017.2 |
| 20260902130048 | 73 | 217 | 0.0 | 0.0 | 0.00 | 0.00 | 0.00 | 99 | 1017.2 |
| 20260902124544 | 72 | 217 | 0.0 | 0.0 | 0.00 | 0.00 | 0.00 | 100 | 1017.1 |
| 20260902123043 | 71 | 217 | 0.0 | 0.0 | 0.00 | 0.00 | 0.00 | 99 | 1017.1 |
| 20260902121543 | 70 | 217 | 0.0 | 0.0 | 0.00 | 0.00 | 0.00 | 99 | 1017.2 |
| 20260902120041 | 70 | 217 | 0.0 | 0.0 | 0.00 | 0.00 | 0.00 | 99 | 1017.1 |
| 20260902114538 | 69 | 217 | 0.0 | 0.0 | 0.00 | 0.00 | 0.00 | 99 | 1016.9 |
| 20260902113036 | 69 | 217 | 0.0 | 0.0 | 0.00 | 0.00 | 0.00 | 99 | 1016.8 |
| 20260902111533 | 69 | 217 | 0.0 | 0.0 | 0.00 | 0.00 | 0.00 | 98 | 1016.7 |
| 20260902110044 | 69 | 217 | 0.0 | 0.0 | 0.00 | 0.00 | 0.00 | 99 | 1016.5 |
| 20260902104550 | 69 | 217 | 0.0 | 0.0 | 0.00 | 0.00 | 0.00 | 98 | 1016.5 |
| 20260902103046 | 69 | 217 | 0.0 | 0.0 | 0.00 | 0.00 | 0.00 | 98 | 1016.6 |
| 20260902101527 | 69 | 217 | 0.0 | 0.0 | 0.00 | 0.00 | 0.00 | 99 | 1016.6 |
| 20260902100025 | 69 | 217 | 0.0 | 0.0 | 0.00 | 0.00 | 0.00 | 98 | 1016.6 |
| 20260902094522 | 70 | 217 | 0.0 | 0.0 | 0.00 | 0.00 | 0.00 | 98 | 1016.4 |
| 20260902093021 | 70 | 217 | 0.0 | 0.0 | 0.00 | 0.00 | 0.00 | 98 | 1016.4 |
| 20260902091517 | 70 | 217 | 0.0 | 0.0 | 0.00 | 0.00 | 0.00 | 98 | 1016.4 |
| 20260902090024 | 70 | 217 | 0.0 | 0.0 | 0.00 | 0.00 | 0.00 | 98 | 1016.4 |
| 20260902084514 | 70 | 217 | 0.0 | 0.0 | 0.00 | 0.01 | 0.00 | 98 | 1016.2 |
| 20260902083011 | 70 | 217 | 0.0 | 0.0 | 0.00 | 0.01 | 0.00 | 98 | 1016.0 |
| 20260902081509 | 71 | 217 | 0.0 | 0.0 | 0.00 | 0.01 | 0.00 | 98 | 1015.9 |
| 20260902080010 | 71 | 217 | 0.0 | 0.0 | 0.00 | 0.01 | 0.00 | 98 | 1015.8 |
| 20260902074506 | 71 | 217 | 0.0 | 0.0 | 0.00 | 0.01 | 0.00 | 98 | 1015.9 |
| 20260902073006 | 71 | 217 | 0.0 | 0.0 | 0.00 | 0.01 | 0.00 | 98 | 1016.0 |
| 20260902071504 | 71 | 216 | 0.0 | 0.0 | 0.00 | 0.01 | 0.00 | 98 | 1015.8 |
| 20260902070007 | 71 | 216 | 0.0 | 0.0 | 0.00 | 0.01 | 0.00 | 98 | 1015.7 |
| 20260902064605 | 72 | 216 | 0.0 | 0.0 | 0.00 | 0.01 | 0.00 | 98 | 1015.7 |
| 20260902063110 | 72 | 216 | 0.0 | 0.0 | 0.00 | 0.01 | 0.00 | 98 | 1015.7 |
| 20260902061620 | 72 | 216 | 0.0 | 0.0 | 0.00 | 0.01 | 0.00 | 98 | 1015.9 |
| 20260902054554 | 72 | 215 | 0.0 | 0.0 | 0.00 | 0.01 | 0.00 | 98 | 1015.7 |
| 20260902053049 | 73 | 215 | 0.0 | 0.0 | 0.00 | 0.01 | 0.00 | 97 | 1015.5 |
| 20260902051558 | 73 | 215 | 0.0 | 0.0 | 0.00 | 0.01 | 0.00 | 97 | 1015.5 |
| 20260902050040 | 73 | 215 | 0.0 | 0.0 | 0.00 | 0.01 | 0.00 | 97 | 1015.5 |
| 20260902044601 | 73 | 215 | 0.0 | 0.0 | 0.00 | 0.01 | 0.01 | 97 | 1015.6 |
| 20260902043046 | 74 | 215 | 0.0 | 0.0 | 0.00 | 0.01 | 0.01 | 97 | 1015.5 |
| 20260902041543 | 74 | 215 | 0.0 | 0.0 | 0.00 | 0.01 | 0.01 | 97 | 1015.5 |
| 20260902040038 | 74 | 215 | 0.0 | 0.0 | 0.00 | 0.01 | 0.01 | 97 | 1015.5 |
| 20260902034509 | 74 | 215 | 0.0 | 0.0 | 0.00 | 0.01 | 0.01 | 96 | 1015.5 |
| 20260902033008 | 75 | 215 | 0.0 | 0.9 | 0.00 | 0.01 | 0.01 | 96 | 1015.5 |
| 20260902031552 | 75 | 215 | 0.0 | 0.9 | 0.00 | 0.01 | 0.01 | 96 | 1015.4 |
| 20260902030036 | 75 | 214 | 0.0 | 1.7 | 0.00 | 0.01 | 0.01 | 96 | 1015.5 |
| 20260902024508 | 76 | 213 | 0.0 | 0.0 | 0.00 | 0.01 | 0.01 | 95 | 1015.5 |
| 20260902023014 | 76 | 213 | 0.0 | 0.0 | 0.00 | 0.01 | 0.01 | 95 | 1015.6 |
| 20260902021535 | 76 | 213 | 0.0 | 0.0 | 0.00 | 0.01 | 0.01 | 95 | 1015.4 |
| 20260902020035 | 76 | 213 | 0.0 | 0.9 | 0.00 | 0.01 | 0.01 | 94 | 1015.4 |
| 20260902014506 | 77 | 213 | 0.0 | 0.9 | 0.00 | 0.01 | 0.01 | 94 | 1015.4 |
| 20260902013005 | 77 | 213 | 0.0 | 0.9 | 0.00 | 0.01 | 0.01 | 93 | 1015.2 |
| 20260902011501 | 78 | 213 | 0.0 | 1.7 | 0.00 | 0.01 | 0.01 | 92 | 1015.2 |
| 20260902010000 | 78 | 213 | 0.0 | 3.5 | 0.00 | 0.01 | 0.01 | 92 | 1015.1 |
| 20260902004600 | 79 | 213 | 0.0 | 1.7 | 0.00 | 0.01 | 0.01 | 91 | 1014.7 |
| 20260902003100 | 79 | 213 | 0.0 | 3.5 | 0.00 | 0.01 | 0.01 | 90 | 1014.7 |
| 20260902001602 | 80 | 213 | 0.0 | 3.5 | 0.00 | 0.01 | 0.01 | 89 | 1014.7 |
| 20260902000057 | 81 | 211 | 1.7 | 4.3 | 0.00 | 0.01 | 0.01 | 87 | 1014.6 |
| 20260901234604 | 82 | 209 | 2.6 | 4.3 | 0.00 | 0.01 | 0.01 | 85 | 1014.6 |
| 20260901233055 | 86 | 159 | 2.6 | 4.3 | 0.00 | 0.01 | 0.01 | 78 | 1014.5 |
| 20260901231558 | 90 | 28 | 0.9 | 3.5 | 0.00 | 0.01 | 0.01 | 70 | 1014.4 |
| 20260901230105 | 91 | 27 | 0.9 | 3.5 | 0.00 | 0.01 | 0.01 | 66 | 1014.5 |
| 20260901224551 | 91 | 26 | 3.5 | 6.1 | 0.00 | 0.01 | 0.01 | 64 | 1014.5 |
| 20260901223050 | 91 | 9 | 0.0 | 4.3 | 0.00 | 0.01 | 0.01 | 66 | 1014.4 |
| 20260901221604 | 91 | 313 | 2.6 | 6.1 | 0.00 | 0.01 | 0.01 | 64 | 1014.6 |
| 20260901220017 | 92 | 315 | 3.5 | 6.1 | 0.00 | 0.01 | 0.01 | 60 | 1014.7 |
| 20260901214516 | 92 | 309 | 0.9 | 4.3 | 0.00 | 0.01 | 0.01 | 63 | 1014.9 |
| 20260901213024 | 92 | 312 | 0.0 | 5.2 | 0.00 | 0.01 | 0.01 | 61 | 1015.0 |
| 20260901211514 | 92 | 304 | 3.5 | 6.1 | 0.00 | 0.01 | 0.01 | 63 | 1015.2 |
| 20260901210014 | 92 | 302 | 1.7 | 6.1 | 0.00 | 0.01 | 0.01 | 61 | 1015.2 |